Regional Weather Roundup
Issued by NWS

Home | Current Version | Previous Version | Graphics & Text | Print | Product List | Glossary On
Versions: 1 2 3 4 5 6 7 8 9 10 11 12 13 14 15 16 17 18 19 20 21 22 23 24 25 26 27 28 29 30 31 32 33 34 35 36 37 38 39 40 41 42 43 44 45 46 47 48 49 50
182
ASUS45 KPSR 070310
RWRAZ

ARIZONA HOURLY REGIONAL WEATHER ROUNDUP
NATIONAL WEATHER SERVICE PHOENIX AZ
800 PM MST SAT FEB 06 2016

NOTE: FAIR INDICATES FEW OR NO CLOUDS BELOW 12,000 FEET WITH NO
SIGNIFICANT WEATHER AND/OR OBSTRUCTIONS TO VISIBILITY.

AZZ001>003-036-070400-
NORTHWEST ARIZONA

CITY           SKY/WX    TMP DP  RH WIND       PRES   REMARKS
BULLHEAD CITY  CLEAR     61  25  25 N18       30.26S
KINGMAN        CLEAR     43  23  45 E8        30.31S
$$

AZZ004>008-015-016-018-070400-
NORTH CENTRAL ARIZONA

CITY           SKY/WX    TMP DP  RH WIND       PRES   REMARKS
GRAND CANYON   CLEAR     25  18  74 CALM      30.39S
WILLIAMS       CLEAR     36  16  44 S10       30.42F WCI  28
PRESCOTT       CLEAR     39  19  44 S8        30.32S WCI  33
FLAGSTAFF      CLEAR     25  16  68 CALM      30.40S
PAYSON         CLEAR     45  16  31 NE10      30.34S
PAGE           CLEAR     33  22  63 SE5       30.43S WCI  29
$$

AZZ009>014-017-070400-
NORTHEAST ARIZONA

CITY           SKY/WX    TMP DP  RH WIND       PRES   REMARKS
WINSLOW        CLEAR     28  14  55 SW7       30.40F WCI  21
SAINT JOHNS    CLEAR     34  15  46 W3        30.39R
WINDOW ROCK    CLEAR     31   0  26 CALM      30.39S
SHOW LOW       CLEAR     28  12  50 CALM      30.42S
$$

AZZ023-070400-
GREATER PHOENIX AREA

CITY           SKY/WX    TMP DP  RH WIND       PRES   REMARKS
PHOENIX        PTCLDY    61  22  22 SW5       30.17S
BUCKEYE        CLEAR     55  23  28 NW5       30.20S
LUKE AFB       CLEAR     56  27  32 N5        30.17S
DEER VALLEY    CLEAR     55  23  28 CALM      30.19R
SCOTTSDALE     CLEAR     61  23  23 N5        30.20S
MESA-FALCON    CLEAR    N/A N/A N/A NW6       30.19R
MESA-GATEWAY   CLEAR     61  21  21 N6        30.19R
CHANDLER       CLEAR     63  19  19 N9        30.18R
$$

AZZ027-028-070400-
SOUTHWEST MARICOPA COUNTY AND PINAL COUNTY

CITY           SKY/WX    TMP DP  RH WIND       PRES   REMARKS
CASA GRANDE    CLEAR     55  18  22 N6        30.19S
GILA BEND      FAIR      58  20  23 CALM      30.18R
$$

AZZ503-504-507>509-070400-
SOUTHEAST ARIZONA

CITY           SKY/WX    TMP DP  RH WIND       PRES   REMARKS
TUCSON         PTCLDY    61   8  12 E3        30.22R
DAVIS-MONTHAN  PTCLDY    54  13  19 NE3       30.20R
RYAN FIELD     CLEAR    N/A N/A N/A W3        30.21R
NOGALES        MOCLDY    51   7  16 NE7       30.23R
SIERRA VISTA   MOCLDY    48   9  20 NE2       30.29R
DOUGLAS        MOCLDY    42   7  23 NE7       30.27S
SAFFORD        CLEAR     47  12  24 SE6       30.27S
$$

AZZ020-021-025-026-031-070400-
SOUTHWEST ARIZONA

CITY           SKY/WX    TMP DP  RH WIND       PRES   REMARKS
YUMA           CLEAR     63  21  20 N8        30.20R
$$

CAZ031-033-041-043-047-048-061-070400-
SOUTHERN CALIFORNIA

CITY           SKY/WX    TMP DP  RH WIND       PRES   REMARKS
DOWNTOWN L.A.  CLEAR     65  27  23 CALM      30.14R
L.A. AIRPORT   CLEAR     67  31  26 CALM      30.15R
SAN DIEGO      PTCLDY    67  24  19 CALM      30.15R
BURBANK        CLEAR     63  30  28 CALM      30.16R
ONTARIO        CLEAR     65  23  20 CALM      30.16R
RIVERSIDE      CLEAR     70  14  11 NE9       30.18R
PALM SPRINGS   CLEAR     67  23  19 W5        30.24R
EL CENTRO NAS  CLEAR     57  21  24 W6        30.22S
IMPERIAL       CLEAR     58  27  30 W5        30.20S
BLYTHE         CLEAR     58  22  24 N7        30.22S
NEEDLES        CLEAR     60  23  24 N8        30.26S
$$

NVZ020-UTZ003-070400-
SOUTHERN NEVADA-UTAH

CITY           SKY/WX    TMP DP  RH WIND       PRES   REMARKS
LAS VEGAS      CLEAR     55  24  30 CALM      30.29R
SALT LAKE CITY PTCLDY    30  24  78 CALM      30.46S
$$

NMZ009-TXZ055-070400-
NEW MEXICO-WEST TEXAS

CITY           SKY/WX    TMP DP  RH WIND       PRES   REMARKS
ALBUQUERQUE    CLOUDY    42  13  30 N18G24    30.36S
EL PASO        MOCLDY    48   6  18 S3        30.32R
$$


........................KEY........................
SKY/WX - SKY CONDITION/WEATHER
TMP    - TEMPERATURE IN FAHRENHEIT
DP     - DEW POINT IN FAHRENHEIT
RH     - RELATIVE HUMIDITY IN PERCENT
WIND   - DIRECTION AND SPEED IN MILES PER HOUR (MPH)
VRB    - VARIABLE WIND DIRECTION
PRES   - MEAN SEA LEVEL PRESSURE IN INCHES OF MERCURY
         F - FALLING PRESSURE   R - RISING PRESSURE
         S - STEADY PRESSURE
VSB    - VISIBILITY IN MILES
HX     - HEAT INDEX IN FAHRENHEIT
WCI    - WIND CHILL INDEX IN FAHRENHEIT
TC     - TEMPERATURE IN CELSIUS WHICH IS ALSO KNOWN AS
         TEMPERATURE IN CENTIGRADE
AFB    - AIR FORCE BASE
         LUKE AFB IS LUKE AIR FORCE BASE
         DAVIS-MONTHAN IS DAVIS-MONTHAN AIR FORCE BASE
NAS    - NAVAL AIR STATION
         EL CENTRO NAS IS EL CENTRO NAVAL AIR STATION
N/A    - NOT AVAILABLE





USA.gov is the U.S. government's official web portal to all federal, state and local government web resources and services.